Time,TemperatureF,DewpointF,PressureIn,WindDirection,WindDirectionDegrees,WindSpeedMPH,WindSpeedGustMPH,Humidity,HourlyPrecipIn,Conditions,Clouds,dailyrainin,SoftwareType,DateUTC
2013-04-17 00:00:00,56.3,52.8,30.00,South,182,0.0,0.0,88,0.00,,,0.00,Wunderground v.1.15,2013-04-17 04:00:00,
2013-04-17 00:01:00,56.2,52.7,30.00,South,180,0.0,0.0,88,0.00,,,0.00,Wunderground v.1.15,2013-04-17 04:01:00,
2013-04-17 00:02:00,56.2,52.7,30.00,South,182,0.0,0.0,88,0.00,,,0.00,Wunderground v.1.15,2013-04-17 04:02:00,
2013-04-17 00:04:00,56.0,52.5,30.00,South,182,0.0,0.0,88,0.00,,,0.00,Wunderground v.1.15,2013-04-17 04:04:00,
2013-04-17 00:09:00,55.7,52.8,30.00,South,182,0.0,0.0,90,0.00,,,0.00,Wunderground v.1.15,2013-04-17 04:09:00,
2013-04-17 00:10:00,55.7,52.8,30.00,South,182,0.0,0.0,90,0.00,,,0.00,Wunderground v.1.15,2013-04-17 04:10:00,
2013-04-17 00:15:00,55.6,53.0,30.00,SSE,160,0.0,0.0,91,0.00,,,0.00,Wunderground v.1.15,2013-04-17 04:15:00,
2013-04-17 00:21:00,55.6,53.0,30.00,SSW,198,0.0,0.0,91,0.00,,,0.00,Wunderground v.1.15,2013-04-17 04:21:00,
2013-04-17 00:27:00,55.6,53.0,30.00,SSE,156,0.0,0.0,91,0.00,,,0.00,Wunderground v.1.15,2013-04-17 04:27:00,
2013-04-17 00:33:00,55.4,53.1,30.00,SE,142,0.0,0.0,92,0.00,,,0.00,Wunderground v.1.15,2013-04-17 04:33:00,
2013-04-17 00:39:00,55.4,53.1,30.00,SSE,158,0.0,0.0,92,0.00,,,0.00,Wunderground v.1.15,2013-04-17 04:39:00,
2013-04-17 00:44:00,55.4,53.1,30.00,SSE,158,0.0,0.0,92,0.00,,,0.00,Wunderground v.1.15,2013-04-17 04:44:00,
2013-04-17 00:50:00,55.1,52.5,30.00,SSW,207,0.0,0.0,91,0.00,,,0.00,Wunderground v.1.15,2013-04-17 04:50:00,
2013-04-17 00:56:00,55.1,52.8,30.00,South,174,0.0,0.0,92,0.00,,,0.01,Wunderground v.1.15,2013-04-17 04:56:00,
2013-04-17 01:02:00,55.3,53.0,30.00,South,191,0.0,0.0,92,0.00,,,0.01,Wunderground v.1.15,2013-04-17 05:02:00,
2013-04-17 01:07:00,55.3,52.7,30.00,South,183,0.0,0.0,91,0.00,,,0.01,Wunderground v.1.15,2013-04-17 05:07:00,
2013-04-17 01:13:00,55.3,52.4,30.00,SSE,165,0.0,0.0,90,0.00,,,0.01,Wunderground v.1.15,2013-04-17 05:13:00,
2013-04-17 01:18:00,55.1,52.2,30.00,SSE,163,0.0,0.0,90,0.00,,,0.01,Wunderground v.1.15,2013-04-17 05:18:00,
2013-04-17 01:24:00,55.0,52.1,30.00,SSE,163,0.0,0.0,90,0.00,,,0.01,Wunderground v.1.15,2013-04-17 05:24:00,
2013-04-17 01:29:00,54.8,52.2,30.01,SSE,163,0.0,0.0,91,0.00,,,0.01,Wunderground v.1.15,2013-04-17 05:29:00,
2013-04-17 01:35:00,54.5,51.9,30.01,SSE,163,0.0,0.0,91,0.00,,,0.01,Wunderground v.1.15,2013-04-17 05:35:00,
2013-04-17 01:40:00,54.4,51.8,30.01,SSE,163,0.0,0.0,91,0.00,,,0.01,Wunderground v.1.15,2013-04-17 05:40:00,
2013-04-17 01:46:00,54.4,51.8,30.01,SSE,163,0.0,0.0,91,0.00,,,0.01,Wunderground v.1.15,2013-04-17 05:46:00,
2013-04-17 01:51:00,54.4,51.8,30.01,SSE,163,0.0,0.0,91,0.00,,,0.01,Wunderground v.1.15,2013-04-17 05:51:00,
2013-04-17 01:57:00,54.7,51.5,30.01,SSE,163,0.0,0.0,89,0.00,,,0.01,Wunderground v.1.15,2013-04-17 05:57:00,
2013-04-17 02:02:00,54.7,51.2,30.01,SSE,163,0.0,0.0,88,0.00,,,0.01,Wunderground v.1.15,2013-04-17 06:02:00,
2013-04-17 02:07:00,54.1,50.6,30.01,SSE,163,0.0,0.0,88,0.00,,,0.01,Wunderground v.1.15,2013-04-17 06:07:00,
2013-04-17 02:12:00,54.1,51.2,30.03,SSE,163,0.0,0.0,90,0.00,,,0.01,Wunderground v.1.15,2013-04-17 06:12:00,
2013-04-17 02:17:00,53.9,51.0,30.03,SSE,163,0.0,0.0,90,0.00,,,0.01,Wunderground v.1.15,2013-04-17 06:17:00,
2013-04-17 02:22:00,53.8,50.6,30.03,SSE,163,0.0,0.0,89,0.00,,,0.01,Wunderground v.1.15,2013-04-17 06:22:00,
2013-04-17 02:28:00,53.5,50.0,30.04,WNW,285,0.0,2.0,88,0.00,,,0.01,Wunderground v.1.15,2013-04-17 06:28:00,
2013-04-17 02:33:00,53.5,49.7,30.04,West,273,0.0,2.0,87,0.00,,,0.01,Wunderground v.1.15,2013-04-17 06:33:00,
2013-04-17 02:38:00,53.2,49.1,30.04,East,94,0.0,2.0,86,0.00,,,0.01,Wunderground v.1.15,2013-04-17 06:38:00,
2013-04-17 02:43:00,53.2,46.9,30.05,WNW,282,0.0,2.0,79,0.00,,,0.01,Wunderground v.1.15,2013-04-17 06:43:00,
2013-04-17 02:48:00,53.1,45.4,30.05,West,279,0.0,4.0,75,0.00,,,0.01,Wunderground v.1.15,2013-04-17 06:48:00,
2013-04-17 02:53:00,52.9,45.9,30.05,West,272,0.0,4.0,77,0.00,,,0.01,Wunderground v.1.15,2013-04-17 06:53:00,
2013-04-17 02:59:00,52.8,45.4,30.06,West,278,0.0,4.0,76,0.00,,,0.01,Wunderground v.1.15,2013-04-17 06:59:00,
2013-04-17 03:04:00,52.8,44.7,30.06,WSW,249,0.0,4.0,74,0.00,,,0.01,Wunderground v.1.15,2013-04-17 07:04:00,
2013-04-17 03:09:00,52.5,45.2,30.06,WSW,245,0.0,1.0,76,0.00,,,0.01,Wunderground v.1.15,2013-04-17 07:09:00,
2013-04-17 03:14:00,52.2,44.9,30.06,WNW,285,0.0,6.0,76,0.00,,,0.01,Wunderground v.1.15,2013-04-17 07:14:00,
2013-04-17 03:19:00,51.9,44.9,30.06,WNW,285,0.0,1.0,77,0.00,,,0.01,Wunderground v.1.15,2013-04-17 07:19:00,
2013-04-17 03:24:00,51.6,44.6,30.06,West,275,0.0,4.0,77,0.00,,,0.01,Wunderground v.1.15,2013-04-17 07:24:00,
2013-04-17 03:29:00,51.4,44.4,30.07,West,270,0.0,2.0,77,0.00,,,0.01,Wunderground v.1.15,2013-04-17 07:29:00,
2013-04-17 03:34:00,51.3,44.3,30.07,West,279,0.0,2.0,77,0.00,,,0.01,Wunderground v.1.15,2013-04-17 07:34:00,
2013-04-17 03:39:00,51.1,43.8,30.07,West,280,0.0,2.0,76,0.00,,,0.01,Wunderground v.1.15,2013-04-17 07:39:00,
2013-04-17 03:45:00,51.0,43.0,30.07,WNW,285,0.0,4.0,74,0.00,,,0.01,Wunderground v.1.15,2013-04-17 07:45:00,
2013-04-17 03:50:00,50.7,42.7,30.07,WSW,256,0.0,2.0,74,0.00,,,0.01,Wunderground v.1.15,2013-04-17 07:50:00,
2013-04-17 03:55:00,50.4,43.1,30.07,WNW,283,0.0,0.0,76,0.00,,,0.01,Wunderground v.1.15,2013-04-17 07:55:00,
2013-04-17 04:00:00,50.1,42.8,30.08,WSW,248,1.0,4.0,76,0.00,,,0.01,Wunderground v.1.15,2013-04-17 08:00:00,
2013-04-17 04:05:00,49.9,42.3,30.08,SW,214,0.0,1.0,75,0.00,,,0.01,Wunderground v.1.15,2013-04-17 08:05:00,
2013-04-17 04:10:00,49.6,42.0,30.08,South,180,0.0,1.0,75,0.00,,,0.01,Wunderground v.1.15,2013-04-17 08:10:00,
2013-04-17 04:15:00,49.5,41.9,30.08,South,180,0.0,0.0,75,0.00,,,0.01,Wunderground v.1.15,2013-04-17 08:15:00,
2013-04-17 04:20:00,49.1,41.5,30.08,South,180,0.0,0.0,75,0.00,,,0.01,Wunderground v.1.15,2013-04-17 08:20:00,
2013-04-17 04:25:00,48.8,41.6,30.08,South,180,0.0,0.0,76,0.00,,,0.01,Wunderground v.1.15,2013-04-17 08:25:00,
2013-04-17 04:30:00,48.6,41.0,30.09,South,180,0.0,0.0,75,0.00,,,0.01,Wunderground v.1.15,2013-04-17 08:30:00,
2013-04-17 04:35:00,48.5,41.3,30.09,South,180,0.0,0.0,76,0.00,,,0.01,Wunderground v.1.15,2013-04-17 08:35:00,
2013-04-17 04:40:00,48.2,41.0,30.09,South,180,0.0,0.0,76,0.00,,,0.01,Wunderground v.1.15,2013-04-17 08:40:00,
2013-04-17 04:45:00,47.9,41.0,30.09,South,180,0.0,0.0,77,0.00,,,0.01,Wunderground v.1.15,2013-04-17 08:45:00,
2013-04-17 04:50:00,47.6,41.1,30.09,South,180,0.0,0.0,78,0.00,,,0.01,Wunderground v.1.15,2013-04-17 08:50:00,
2013-04-17 04:55:00,47.4,40.6,30.09,South,180,0.0,0.0,77,0.00,,,0.01,Wunderground v.1.15,2013-04-17 08:55:00,
2013-04-17 05:00:00,47.1,40.6,30.09,South,180,0.0,0.0,78,0.00,,,0.01,Wunderground v.1.15,2013-04-17 09:00:00,
2013-04-17 05:05:00,46.8,40.6,30.09,South,180,0.0,0.0,79,0.00,,,0.01,Wunderground v.1.15,2013-04-17 09:05:00,
2013-04-17 05:11:00,46.5,40.3,30.09,South,180,0.0,0.0,79,0.00,,,0.01,Wunderground v.1.15,2013-04-17 09:11:00,
2013-04-17 05:16:00,46.4,40.2,30.09,South,180,0.0,0.0,79,0.00,,,0.02,Wunderground v.1.15,2013-04-17 09:16:00,
2013-04-17 05:21:00,45.7,40.2,30.09,South,176,0.0,0.0,81,0.00,,,0.02,Wunderground v.1.15,2013-04-17 09:21:00,
2013-04-17 05:26:00,45.7,40.5,30.11,SSE,149,0.0,0.0,82,0.00,,,0.02,Wunderground v.1.15,2013-04-17 09:26:00,
2013-04-17 05:32:00,46.2,40.4,30.11,SSE,149,0.0,0.0,80,0.00,,,0.02,Wunderground v.1.15,2013-04-17 09:32:00,
2013-04-17 05:37:00,46.4,39.9,30.11,WNW,303,0.0,0.0,78,0.00,,,0.02,Wunderground v.1.15,2013-04-17 09:37:00,
2013-04-17 05:42:00,46.8,37.5,30.11,WSW,255,0.0,4.0,70,0.00,,,0.02,Wunderground v.1.15,2013-04-17 09:42:00,
2013-04-17 05:47:00,47.0,37.4,30.11,WNW,287,0.0,0.0,69,0.00,,,0.02,Wunderground v.1.15,2013-04-17 09:47:00,
2013-04-17 05:52:00,46.8,37.2,30.11,WNW,286,0.0,1.0,69,0.00,,,0.02,Wunderground v.1.15,2013-04-17 09:52:00,
2013-04-17 05:58:00,46.4,36.8,30.11,WNW,286,0.0,0.0,69,0.00,,,0.02,Wunderground v.1.15,2013-04-17 09:58:00,
2013-04-17 06:03:00,46.0,36.4,30.11,WNW,286,0.0,0.0,69,0.00,,,0.02,Wunderground v.1.15,2013-04-17 10:03:00,
2013-04-17 06:08:00,45.7,36.5,30.11,WNW,286,0.0,0.0,70,0.00,,,0.02,Wunderground v.1.15,2013-04-17 10:08:00,
2013-04-17 06:13:00,45.5,36.3,30.12,WNW,286,0.0,0.0,70,0.00,,,0.02,Wunderground v.1.15,2013-04-17 10:13:00,
2013-04-17 06:18:00,45.1,36.3,30.12,WNW,286,0.0,0.0,71,0.00,,,0.02,Wunderground v.1.15,2013-04-17 10:18:00,
2013-04-17 06:23:00,44.9,35.3,30.12,WNW,286,0.0,0.0,69,0.00,,,0.02,Wunderground v.1.15,2013-04-17 10:23:00,
2013-04-17 06:29:00,44.9,35.3,30.12,WNW,282,0.0,0.0,69,0.00,,,0.02,Wunderground v.1.15,2013-04-17 10:29:00,
2013-04-17 06:34:00,44.8,35.2,30.12,WNW,282,0.0,0.0,69,0.00,,,0.02,Wunderground v.1.15,2013-04-17 10:34:00,
2013-04-17 06:39:00,44.6,35.8,30.12,WNW,282,0.0,0.0,71,0.00,,,0.02,Wunderground v.1.15,2013-04-17 10:39:00,
2013-04-17 06:44:00,44.6,34.7,30.13,WNW,282,0.0,0.0,68,0.00,,,0.02,Wunderground v.1.15,2013-04-17 10:44:00,
2013-04-17 06:49:00,44.8,35.2,30.13,WSW,254,0.0,0.0,69,0.00,,,0.02,Wunderground v.1.15,2013-04-17 10:49:00,
2013-04-17 06:54:00,44.6,34.7,30.13,WSW,258,0.0,2.0,68,0.00,,,0.02,Wunderground v.1.15,2013-04-17 10:54:00,
2013-04-17 06:59:00,44.6,34.7,30.14,WSW,258,0.0,0.0,68,0.00,,,0.02,Wunderground v.1.15,2013-04-17 10:59:00,
2013-04-17 07:04:00,44.5,35.0,30.14,WSW,258,0.0,0.0,69,0.00,,,0.02,Wunderground v.1.15,2013-04-17 11:04:00,
2013-04-17 07:10:00,44.6,34.7,30.14,WSW,258,0.0,0.0,68,0.00,,,0.02,Wunderground v.1.15,2013-04-17 11:10:00,
2013-04-17 07:15:00,44.5,35.0,30.14,WSW,248,0.0,0.0,69,0.00,,,0.02,Wunderground v.1.15,2013-04-17 11:15:00,
2013-04-17 07:20:00,44.6,35.4,30.14,WSW,248,0.0,0.0,70,0.00,,,0.02,Wunderground v.1.15,2013-04-17 11:20:00,
2013-04-17 07:25:00,44.8,35.2,30.14,WSW,248,0.0,0.0,69,0.00,,,0.02,Wunderground v.1.15,2013-04-17 11:25:00,
2013-04-17 07:31:00,44.6,35.1,30.15,WSW,248,0.0,0.0,69,0.00,,,0.02,Wunderground v.1.15,2013-04-17 11:31:00,
2013-04-17 07:36:00,44.8,35.6,30.15,SW,228,0.0,0.0,70,0.00,,,0.02,Wunderground v.1.15,2013-04-17 11:36:00,
2013-04-17 07:41:00,45.1,34.8,30.16,WSW,248,0.0,1.0,67,0.00,,,0.02,Wunderground v.1.15,2013-04-17 11:41:00,
2013-04-17 07:46:00,45.2,35.3,30.16,WSW,248,0.0,0.0,68,0.00,,,0.02,Wunderground v.1.15,2013-04-17 11:46:00,
2013-04-17 07:52:00,45.4,34.3,30.16,WSW,248,0.0,0.0,65,0.00,,,0.02,Wunderground v.1.15,2013-04-17 11:52:00,
2013-04-17 07:57:00,45.5,34.8,30.15,WSW,239,0.0,0.0,66,0.00,,,0.02,Wunderground v.1.15,2013-04-17 11:57:00,
2013-04-17 08:02:00,45.7,34.6,30.15,WSW,239,0.0,0.0,65,0.00,,,0.02,Wunderground v.1.15,2013-04-17 12:02:00,
2013-04-17 08:07:00,45.8,33.9,30.15,WNW,287,0.0,0.0,63,0.00,,,0.02,Wunderground v.1.15,2013-04-17 12:07:00,
2013-04-17 08:12:00,46.1,33.8,30.16,West,278,0.0,1.0,62,0.00,,,0.02,Wunderground v.1.15,2013-04-17 12:12:00,
2013-04-17 08:17:00,46.5,35.0,30.16,WSW,254,0.0,4.0,64,0.00,,,0.02,Wunderground v.1.15,2013-04-17 12:17:00,
2013-04-17 08:22:00,46.8,33.6,30.16,West,275,0.0,4.0,60,0.00,,,0.02,Wunderground v.1.15,2013-04-17 12:22:00,
2013-04-17 08:27:00,47.1,32.6,30.16,WSW,245,0.0,6.0,57,0.00,,,0.02,Wunderground v.1.15,2013-04-17 12:27:00,
2013-04-17 08:32:00,47.4,33.8,30.16,WNW,283,0.0,6.0,59,0.00,,,0.02,Wunderground v.1.15,2013-04-17 12:32:00,
2013-04-17 08:37:00,47.7,32.8,30.16,West,276,0.0,4.0,56,0.00,,,0.02,Wunderground v.1.15,2013-04-17 12:37:00,
2013-04-17 08:42:00,47.9,32.5,30.16,West,273,0.0,6.0,55,0.00,,,0.02,Wunderground v.1.15,2013-04-17 12:42:00,
2013-04-17 08:48:00,48.0,32.6,30.16,WSW,254,0.0,4.0,55,0.00,,,0.02,Wunderground v.1.15,2013-04-17 12:48:00,
2013-04-17 08:53:00,48.0,34.3,30.16,SW,222,2.0,4.0,59,0.00,,,0.02,Wunderground v.1.15,2013-04-17 12:53:00,
2013-04-17 08:58:00,48.2,32.8,30.16,West,265,4.0,4.0,55,0.00,,,0.02,Wunderground v.1.15,2013-04-17 12:58:00,
2013-04-17 09:03:00,48.5,32.1,30.16,WNW,296,1.0,7.0,53,0.00,,,0.02,Wunderground v.1.15,2013-04-17 13:03:00,
2013-04-17 09:09:00,48.8,30.5,30.16,WSW,252,4.0,4.0,49,0.00,,,0.02,Wunderground v.1.15,2013-04-17 13:09:00,
2013-04-17 09:14:00,48.9,33.0,30.17,WSW,248,1.0,6.0,54,0.00,,,0.02,Wunderground v.1.15,2013-04-17 13:14:00,
2013-04-17 09:19:00,49.1,32.7,30.17,West,259,1.0,4.0,53,0.00,,,0.02,Wunderground v.1.15,2013-04-17 13:19:00,
2013-04-17 09:24:00,49.4,33.9,30.17,WNW,285,4.0,7.0,55,0.00,,,0.02,Wunderground v.1.15,2013-04-17 13:24:00,
2013-04-17 09:29:00,49.4,31.5,30.17,SSW,203,6.0,8.0,50,0.00,,,0.02,Wunderground v.1.15,2013-04-17 13:29:00,
2013-04-17 09:34:00,49.6,32.7,30.17,West,270,6.0,8.0,52,0.00,,,0.02,Wunderground v.1.15,2013-04-17 13:34:00,
2013-04-17 09:40:00,49.9,32.0,30.17,West,262,4.0,6.0,50,0.00,,,0.02,Wunderground v.1.15,2013-04-17 13:40:00,
2013-04-17 09:45:00,50.2,32.3,30.17,West,275,1.0,1.0,50,0.00,,,0.02,Wunderground v.1.15,2013-04-17 13:45:00,
2013-04-17 09:50:00,50.4,31.4,30.17,NW,309,0.0,2.0,48,0.00,,,0.02,Wunderground v.1.15,2013-04-17 13:50:00,
2013-04-17 09:55:00,51.0,33.5,30.17,WNW,292,0.0,1.0,51,0.00,,,0.02,Wunderground v.1.15,2013-04-17 13:55:00,
2013-04-17 10:00:00,51.4,31.8,30.17,South,170,0.0,1.0,47,0.00,,,0.02,Wunderground v.1.15,2013-04-17 14:00:00,
2013-04-17 10:05:00,51.9,32.8,30.17,NNW,337,0.0,1.0,48,0.00,,,0.02,Wunderground v.1.15,2013-04-17 14:05:00,
2013-04-17 10:10:00,51.9,32.8,30.17,NW,310,1.0,6.0,48,0.00,,,0.02,Wunderground v.1.15,2013-04-17 14:10:00,
2013-04-17 10:16:00,52.3,33.2,30.17,WSW,249,0.0,1.0,48,0.00,,,0.02,Wunderground v.1.15,2013-04-17 14:16:00,
2013-04-17 10:21:00,52.5,31.2,30.17,West,263,2.0,4.0,44,0.00,,,0.02,Wunderground v.1.15,2013-04-17 14:21:00,
2013-04-17 10:26:00,52.9,29.8,30.17,WSW,237,0.0,1.0,41,0.00,,,0.02,Wunderground v.1.15,2013-04-17 14:26:00,
2013-04-17 10:31:00,53.6,31.6,30.18,West,268,6.0,6.0,43,0.00,,,0.02,Wunderground v.1.15,2013-04-17 14:31:00,
2013-04-17 10:36:00,53.8,32.4,30.18,West,261,0.0,8.0,44,0.00,,,0.02,Wunderground v.1.15,2013-04-17 14:36:00,
2013-04-17 10:41:00,54.1,30.9,30.17,WSW,251,0.0,8.0,41,0.00,,,0.02,Wunderground v.1.15,2013-04-17 14:41:00,
2013-04-17 10:46:00,55.1,34.1,30.17,West,275,0.0,1.0,45,0.00,,,0.02,Wunderground v.1.15,2013-04-17 14:46:00,
2013-04-17 10:52:00,56.0,33.2,30.17,SW,217,0.0,4.0,42,0.00,,,0.02,Wunderground v.1.15,2013-04-17 14:52:00,
2013-04-17 10:57:00,56.5,33.1,30.17,NW,304,0.0,1.0,41,0.00,,,0.02,Wunderground v.1.15,2013-04-17 14:57:00,
2013-04-17 11:02:00,57.2,32.4,30.17,West,265,0.0,4.0,39,0.00,,,0.02,Wunderground v.1.15,2013-04-17 15:02:00,
2013-04-17 11:07:00,57.6,34.1,30.17,WNW,285,1.0,2.0,41,0.00,,,0.02,Wunderground v.1.15,2013-04-17 15:07:00,
2013-04-17 11:12:00,57.6,32.8,30.17,WSW,255,1.0,6.0,39,0.00,,,0.02,Wunderground v.1.15,2013-04-17 15:12:00,
2013-04-17 11:17:00,57.8,32.3,30.17,WSW,255,0.0,4.0,38,0.00,,,0.02,Wunderground v.1.15,2013-04-17 15:17:00,
2013-04-17 11:22:00,58.6,33.7,30.17,West,278,2.0,6.0,39,0.00,,,0.02,Wunderground v.1.15,2013-04-17 15:22:00,
2013-04-17 11:28:00,58.7,31.1,30.17,West,272,1.0,4.0,35,0.00,,,0.02,Wunderground v.1.15,2013-04-17 15:28:00,
2013-04-17 11:33:00,58.6,30.3,30.17,WSW,255,4.0,7.0,34,0.00,,,0.02,Wunderground v.1.15,2013-04-17 15:33:00,
2013-04-17 11:38:00,58.3,30.7,30.17,NW,309,0.0,4.0,35,0.00,,,0.02,Wunderground v.1.15,2013-04-17 15:38:00,
2013-04-17 11:43:00,59.3,33.0,30.17,WNW,289,0.0,4.0,37,0.00,,,0.02,Wunderground v.1.15,2013-04-17 15:43:00,
2013-04-17 11:48:00,59.2,30.8,30.17,West,278,0.0,4.0,34,0.00,,,0.02,Wunderground v.1.15,2013-04-17 15:48:00,
2013-04-17 11:54:00,60.1,31.6,30.17,West,270,7.0,7.0,34,0.00,,,0.02,Wunderground v.1.15,2013-04-17 15:54:00,
2013-04-17 11:59:00,60.4,31.9,30.17,West,263,6.0,7.0,34,0.00,,,0.02,Wunderground v.1.15,2013-04-17 15:59:00,
2013-04-17 12:04:00,60.2,31.7,30.17,West,276,4.0,7.0,34,0.00,,,0.02,Wunderground v.1.15,2013-04-17 16:04:00,
2013-04-17 12:09:00,60.5,28.1,30.17,WNW,289,0.0,7.0,29,0.00,,,0.02,Wunderground v.1.15,2013-04-17 16:09:00,
2013-04-17 12:14:00,61.0,31.7,30.17,WSW,256,2.0,7.0,33,0.00,,,0.02,Wunderground v.1.15,2013-04-17 16:14:00,
2013-04-17 12:19:00,61.3,30.4,30.17,West,269,6.0,6.0,31,0.00,,,0.02,Wunderground v.1.15,2013-04-17 16:19:00,
2013-04-17 12:24:00,61.3,27.9,30.17,NW,323,0.0,6.0,28,0.00,,,0.02,Wunderground v.1.15,2013-04-17 16:24:00,
2013-04-17 12:29:00,61.2,31.1,30.17,NW,323,7.0,7.0,32,0.00,,,0.02,Wunderground v.1.15,2013-04-17 16:29:00,
2013-04-17 12:34:00,60.9,28.4,30.17,WSW,258,0.0,7.0,29,0.00,,,0.02,Wunderground v.1.15,2013-04-17 16:34:00,
2013-04-17 12:40:00,61.8,29.2,30.17,NNW,340,0.0,6.0,29,0.00,,,0.02,Wunderground v.1.15,2013-04-17 16:40:00,
2013-04-17 12:45:00,62.0,28.5,30.17,WNW,290,2.0,2.0,28,0.00,,,0.02,Wunderground v.1.15,2013-04-17 16:45:00,
2013-04-17 12:50:00,62.6,30.7,30.17,WNW,289,6.0,6.0,30,0.00,,,0.02,Wunderground v.1.15,2013-04-17 16:50:00,
2013-04-17 12:55:00,62.0,28.5,30.17,WNW,296,0.0,2.0,28,0.00,,,0.02,Wunderground v.1.15,2013-04-17 16:55:00,
2013-04-17 13:00:00,61.6,27.3,30.17,NW,307,0.0,6.0,27,0.00,,,0.02,Wunderground v.1.15,2013-04-17 17:00:00,
2013-04-17 13:05:00,61.5,30.6,30.17,NNW,341,0.0,1.0,31,0.00,,,0.02,Wunderground v.1.15,2013-04-17 17:05:00,
2013-04-17 13:11:00,61.5,28.9,30.17,West,259,0.0,4.0,29,0.00,,,0.02,Wunderground v.1.15,2013-04-17 17:11:00,
2013-04-17 13:16:00,62.0,30.2,30.16,West,279,0.0,1.0,30,0.00,,,0.02,Wunderground v.1.15,2013-04-17 17:16:00,
2013-04-17 13:21:00,62.4,27.9,30.16,NNW,333,2.0,6.0,27,0.00,,,0.02,Wunderground v.1.15,2013-04-17 17:21:00,
2013-04-17 13:26:00,62.3,27.9,30.17,NW,324,4.0,6.0,27,0.00,,,0.02,Wunderground v.1.15,2013-04-17 17:26:00,
2013-04-17 13:31:00,62.9,28.4,30.17,West,265,1.0,7.0,27,0.00,,,0.02,Wunderground v.1.15,2013-04-17 17:31:00,
2013-04-17 13:36:00,62.0,28.5,30.17,WNW,287,0.0,6.0,28,0.00,,,0.02,Wunderground v.1.15,2013-04-17 17:36:00,
2013-04-17 13:42:00,62.7,29.1,30.17,WNW,282,0.0,6.0,28,0.00,,,0.02,Wunderground v.1.15,2013-04-17 17:42:00,
2013-04-17 13:47:00,62.4,31.3,30.17,NNW,330,0.0,0.0,31,0.00,,,0.02,Wunderground v.1.15,2013-04-17 17:47:00,
2013-04-17 13:52:00,63.9,28.3,30.17,West,266,0.0,0.0,26,0.00,,,0.02,Wunderground v.1.15,2013-04-17 17:52:00,
2013-04-17 13:57:00,62.7,28.2,30.16,NE,39,0.0,4.0,27,0.00,,,0.02,Wunderground v.1.15,2013-04-17 17:57:00,
2013-04-17 14:02:00,62.9,29.3,30.16,ESE,118,0.0,4.0,28,0.00,,,0.02,Wunderground v.1.15,2013-04-17 18:02:00,
2013-04-17 14:08:00,63.2,29.5,30.16,WSW,256,1.0,1.0,28,0.00,,,0.02,Wunderground v.1.15,2013-04-17 18:08:00,
2013-04-17 14:13:00,63.2,31.2,30.17,NW,317,0.0,4.0,30,0.00,,,0.02,Wunderground v.1.15,2013-04-17 18:13:00,
2013-04-17 14:18:00,63.2,29.5,30.17,WNW,303,0.0,0.0,28,0.00,,,0.02,Wunderground v.1.15,2013-04-17 18:18:00,
2013-04-17 14:23:00,64.0,30.2,30.17,West,265,0.0,1.0,28,0.00,,,0.02,Wunderground v.1.15,2013-04-17 18:23:00,
2013-04-17 14:28:00,64.3,29.6,30.17,NW,307,0.0,1.0,27,0.00,,,0.02,Wunderground v.1.15,2013-04-17 18:28:00,
2013-04-17 14:33:00,63.4,28.8,30.17,NNW,333,0.0,7.0,27,0.00,,,0.02,Wunderground v.1.15,2013-04-17 18:33:00,
2013-04-17 14:38:00,63.7,30.0,30.17,West,272,7.0,7.0,28,0.00,,,0.02,Wunderground v.1.15,2013-04-17 18:38:00,
2013-04-17 14:44:00,63.5,29.8,30.17,NW,323,0.0,7.0,28,0.00,,,0.02,Wunderground v.1.15,2013-04-17 18:44:00,
2013-04-17 14:49:00,63.7,29.1,30.17,WNW,294,0.0,4.0,27,0.00,,,0.02,Wunderground v.1.15,2013-04-17 18:49:00,
2013-04-17 14:54:00,63.4,30.6,30.17,WSW,251,0.0,4.0,29,0.00,,,0.02,Wunderground v.1.15,2013-04-17 18:54:00,
2013-04-17 14:59:00,63.1,28.5,30.17,WSW,258,1.0,6.0,27,0.00,,,0.02,Wunderground v.1.15,2013-04-17 18:59:00,
2013-04-17 15:04:00,62.7,28.2,30.17,WNW,286,0.0,6.0,27,0.00,,,0.02,Wunderground v.1.15,2013-04-17 19:04:00,
2013-04-17 15:09:00,62.0,26.7,30.17,WNW,282,0.0,6.0,26,0.00,,,0.02,Wunderground v.1.15,2013-04-17 19:09:00,
2013-04-17 15:14:00,62.3,27.9,30.18,SW,221,2.0,6.0,27,0.00,,,0.02,Wunderground v.1.15,2013-04-17 19:14:00,
2013-04-17 15:20:00,62.7,28.2,30.18,WNW,300,0.0,4.0,27,0.00,,,0.02,Wunderground v.1.15,2013-04-17 19:20:00,
2013-04-17 15:25:00,62.4,27.0,30.18,WNW,300,0.0,4.0,26,0.00,,,0.02,Wunderground v.1.15,2013-04-17 19:25:00,
2013-04-17 15:30:00,62.1,28.6,30.18,WNW,296,0.0,7.0,28,0.00,,,0.02,Wunderground v.1.15,2013-04-17 19:30:00,
2013-04-17 15:35:00,61.8,28.3,30.18,SW,235,0.0,1.0,28,0.00,,,0.02,Wunderground v.1.15,2013-04-17 19:35:00,
2013-04-17 15:40:00,62.0,28.5,30.18,SW,221,0.0,4.0,28,0.00,,,0.02,Wunderground v.1.15,2013-04-17 19:40:00,
2013-04-17 15:45:00,61.6,29.0,30.18,West,273,0.0,1.0,29,0.00,,,0.02,Wunderground v.1.15,2013-04-17 19:45:00,
2013-04-17 15:50:00,61.3,27.9,30.18,SSW,208,0.0,4.0,28,0.00,,,0.02,Wunderground v.1.15,2013-04-17 19:50:00,
2013-04-17 15:55:00,61.0,28.5,30.18,West,262,1.0,1.0,29,0.00,,,0.02,Wunderground v.1.15,2013-04-17 19:55:00,
2013-04-17 16:00:00,60.9,28.4,30.19,SW,217,2.0,4.0,29,0.00,,,0.02,Wunderground v.1.15,2013-04-17 20:00:00,
2013-04-17 16:05:00,60.9,27.5,30.19,WSW,241,0.0,2.0,28,0.00,,,0.02,Wunderground v.1.15,2013-04-17 20:05:00,
2013-04-17 16:10:00,60.7,27.4,30.19,WNW,292,0.0,6.0,28,0.00,,,0.02,Wunderground v.1.15,2013-04-17 20:10:00,
2013-04-17 16:15:00,60.7,27.4,30.19,SW,228,4.0,4.0,28,0.00,,,0.02,Wunderground v.1.15,2013-04-17 20:15:00,
2013-04-17 16:20:00,60.7,27.4,30.19,SW,214,0.0,4.0,28,0.00,,,0.02,Wunderground v.1.15,2013-04-17 20:20:00,
2013-04-17 16:25:00,60.7,28.2,30.19,West,275,0.0,2.0,29,0.00,,,0.02,Wunderground v.1.15,2013-04-17 20:25:00,
2013-04-17 16:30:00,60.1,28.5,30.19,West,276,0.0,6.0,30,0.00,,,0.02,Wunderground v.1.15,2013-04-17 20:30:00,
2013-04-17 16:35:00,59.9,29.2,30.19,West,259,0.0,4.0,31,0.00,,,0.02,Wunderground v.1.15,2013-04-17 20:35:00,
2013-04-17 16:40:00,59.8,29.1,30.19,WSW,255,0.0,4.0,31,0.00,,,0.02,Wunderground v.1.15,2013-04-17 20:40:00,
2013-04-17 16:46:00,60.1,28.5,30.20,WSW,246,4.0,6.0,30,0.00,,,0.02,Wunderground v.1.15,2013-04-17 20:46:00,
2013-04-17 16:51:00,60.1,27.7,30.20,WNW,285,0.0,6.0,29,0.00,,,0.02,Wunderground v.1.15,2013-04-17 20:51:00,
2013-04-17 16:56:00,59.6,28.9,30.21,West,272,0.0,1.0,31,0.00,,,0.02,Wunderground v.1.15,2013-04-17 20:56:00,
2013-04-17 17:01:00,59.6,29.7,30.21,West,266,2.0,4.0,32,0.00,,,0.02,Wunderground v.1.15,2013-04-17 21:01:00,
2013-04-17 17:07:00,59.5,28.0,30.21,WSW,255,0.0,1.0,30,0.00,,,0.02,Wunderground v.1.15,2013-04-17 21:07:00,
2013-04-17 17:12:00,59.5,28.0,30.21,NW,314,0.0,1.0,30,0.00,,,0.02,Wunderground v.1.15,2013-04-17 21:12:00,
2013-04-17 17:17:00,59.8,31.3,30.21,West,265,0.0,0.0,34,0.00,,,0.02,Wunderground v.1.15,2013-04-17 21:17:00,
2013-04-17 17:22:00,59.8,29.1,30.21,WSW,241,4.0,4.0,31,0.00,,,0.02,Wunderground v.1.15,2013-04-17 21:22:00,
2013-04-17 17:27:00,59.3,29.4,30.22,WNW,287,0.0,1.0,32,0.00,,,0.02,Wunderground v.1.15,2013-04-17 21:27:00,
2013-04-17 17:32:00,59.3,29.4,30.22,West,276,0.0,6.0,32,0.00,,,0.02,Wunderground v.1.15,2013-04-17 21:32:00,
2013-04-17 17:37:00,59.2,28.5,30.22,WNW,296,1.0,4.0,31,0.00,,,0.02,Wunderground v.1.15,2013-04-17 21:37:00,
2013-04-17 17:42:00,59.0,30.6,30.22,West,266,0.0,4.0,34,0.00,,,0.02,Wunderground v.1.15,2013-04-17 21:42:00,
2013-04-17 17:47:00,58.9,29.8,30.22,West,263,0.0,0.0,33,0.00,,,0.02,Wunderground v.1.15,2013-04-17 21:47:00,
2013-04-17 17:52:00,58.6,31.0,30.22,West,263,0.0,0.0,35,0.00,,,0.02,Wunderground v.1.15,2013-04-17 21:52:00,
2013-04-17 17:58:00,58.6,29.6,30.23,West,279,0.0,4.0,33,0.00,,,0.02,Wunderground v.1.15,2013-04-17 21:58:00,
2013-04-17 18:03:00,58.3,29.3,30.23,WSW,237,0.0,4.0,33,0.00,,,0.02,Wunderground v.1.15,2013-04-17 22:03:00,
2013-04-17 18:08:00,58.1,29.8,30.23,West,270,0.0,2.0,34,0.00,,,0.02,Wunderground v.1.15,2013-04-17 22:08:00,
2013-04-17 18:13:00,57.8,31.0,30.25,West,270,0.0,2.0,36,0.00,,,0.02,Wunderground v.1.15,2013-04-17 22:13:00,
2013-04-17 18:18:00,57.6,30.1,30.25,West,269,0.0,0.0,35,0.00,,,0.02,Wunderground v.1.15,2013-04-17 22:18:00,
2013-04-17 18:23:00,57.3,31.2,30.25,WNW,292,0.0,0.0,37,0.00,,,0.02,Wunderground v.1.15,2013-04-17 22:23:00,
2013-04-17 18:28:00,57.3,31.2,30.25,WNW,294,0.0,2.0,37,0.00,,,0.02,Wunderground v.1.15,2013-04-17 22:28:00,
2013-04-17 18:33:00,57.0,28.1,30.25,WNW,296,0.0,2.0,33,0.00,,,0.02,Wunderground v.1.15,2013-04-17 22:33:00,
2013-04-17 18:38:00,56.7,30.0,30.25,WNW,296,0.0,0.0,36,0.00,,,0.02,Wunderground v.1.15,2013-04-17 22:38:00,
2013-04-17 18:43:00,56.2,28.9,30.25,WNW,290,0.0,0.0,35,0.00,,,0.02,Wunderground v.1.15,2013-04-17 22:43:00,
2013-04-17 18:48:00,55.7,27.0,30.25,North,5,0.0,0.0,33,0.00,,,0.02,Wunderground v.1.15,2013-04-17 22:48:00,
2013-04-17 18:53:00,55.4,27.5,30.25,North,5,0.0,0.0,34,0.00,,,0.02,Wunderground v.1.15,2013-04-17 22:53:00,
2013-04-17 18:58:00,55.3,28.1,30.26,North,358,0.0,0.0,35,0.00,,,0.02,Wunderground v.1.15,2013-04-17 22:58:00,
2013-04-17 19:04:00,54.8,29.7,30.26,WNW,300,0.0,0.0,38,0.00,,,0.02,Wunderground v.1.15,2013-04-17 23:04:00,
2013-04-17 19:09:00,54.5,27.4,30.26,WNW,300,0.0,0.0,35,0.00,,,0.02,Wunderground v.1.15,2013-04-17 23:09:00,
2013-04-17 19:14:00,54.5,25.2,30.26,North,351,0.0,2.0,32,0.00,,,0.02,Wunderground v.1.15,2013-04-17 23:14:00,
2013-04-17 19:19:00,54.1,25.6,30.26,North,351,0.0,0.0,33,0.00,,,0.02,Wunderground v.1.15,2013-04-17 23:19:00,
2013-04-17 19:24:00,54.1,26.3,30.26,North,351,0.0,0.0,34,0.00,,,0.02,Wunderground v.1.15,2013-04-17 23:24:00,
2013-04-17 19:29:00,53.8,26.8,30.27,North,351,0.0,0.0,35,0.00,,,0.02,Wunderground v.1.15,2013-04-17 23:29:00,
2013-04-17 19:34:00,53.2,26.9,30.27,North,351,0.0,0.0,36,0.00,,,0.02,Wunderground v.1.15,2013-04-17 23:34:00,
2013-04-17 19:39:00,52.9,26.6,30.27,North,351,0.0,0.0,36,0.00,,,0.02,Wunderground v.1.15,2013-04-17 23:39:00,
2013-04-17 19:44:00,52.8,25.9,30.28,North,351,0.0,0.0,35,0.00,,,0.02,Wunderground v.1.15,2013-04-17 23:44:00,
2013-04-17 19:50:00,52.0,27.8,30.28,North,351,0.0,0.0,39,0.00,,,0.02,Wunderground v.1.15,2013-04-17 23:50:00,
2013-04-17 19:55:00,50.4,31.4,30.28,North,351,0.0,0.0,48,0.00,,,0.02,Wunderground v.1.15,2013-04-17 23:55:00,
2013-04-17 20:00:00,49.8,28.7,30.29,North,351,0.0,0.0,44,0.00,,,0.02,Wunderground v.1.15,2013-04-18 00:00:00,
2013-04-17 20:05:00,49.1,32.2,30.29,North,351,0.0,0.0,52,0.00,,,0.02,Wunderground v.1.15,2013-04-18 00:05:00,
2013-04-17 20:10:00,48.0,32.1,30.29,North,351,0.0,0.0,54,0.00,,,0.02,Wunderground v.1.15,2013-04-18 00:10:00,
2013-04-17 20:15:00,46.8,31.0,30.30,North,351,0.0,0.0,54,0.00,,,0.02,Wunderground v.1.15,2013-04-18 00:15:00,
2013-04-17 20:20:00,48.0,27.1,30.30,North,351,0.0,0.0,44,0.00,,,0.02,Wunderground v.1.15,2013-04-18 00:20:00,
2013-04-17 20:25:00,48.8,27.3,30.30,North,351,0.0,0.0,43,0.00,,,0.02,Wunderground v.1.15,2013-04-18 00:25:00,
2013-04-17 20:30:00,48.8,29.4,30.31,North,351,0.0,0.0,47,0.00,,,0.02,Wunderground v.1.15,2013-04-18 00:30:00,
2013-04-17 20:35:00,48.8,28.4,30.31,North,352,0.0,0.0,45,0.00,,,0.02,Wunderground v.1.15,2013-04-18 00:35:00,
2013-04-17 20:41:00,48.8,27.3,30.31,North,351,0.0,0.0,43,0.00,,,0.02,Wunderground v.1.15,2013-04-18 00:41:00,
2013-04-17 20:46:00,48.5,27.6,30.31,North,351,0.0,0.0,44,0.00,,,0.02,Wunderground v.1.15,2013-04-18 00:46:00,
2013-04-17 20:51:00,48.0,27.6,30.31,North,352,0.0,0.0,45,0.00,,,0.02,Wunderground v.1.15,2013-04-18 00:51:00,
2013-04-17 20:56:00,47.9,28.1,30.32,North,352,0.0,0.0,46,0.00,,,0.02,Wunderground v.1.15,2013-04-18 00:56:00,
2013-04-17 21:01:00,48.2,27.8,30.32,North,352,0.0,0.0,45,0.00,,,0.02,Wunderground v.1.15,2013-04-18 01:01:00,
2013-04-17 21:06:00,48.0,27.1,30.32,North,352,0.0,0.0,44,0.00,,,0.02,Wunderground v.1.15,2013-04-18 01:06:00,
2013-04-17 21:11:00,47.9,28.1,30.32,North,352,0.0,0.0,46,0.00,,,0.02,Wunderground v.1.15,2013-04-18 01:11:00,
2013-04-17 21:17:00,47.3,28.1,30.32,North,357,0.0,0.0,47,0.00,,,0.02,Wunderground v.1.15,2013-04-18 01:17:00,
2013-04-17 21:22:00,47.6,26.7,30.32,North,357,0.0,0.0,44,0.00,,,0.02,Wunderground v.1.15,2013-04-18 01:22:00,
2013-04-17 21:27:00,46.7,28.5,30.31,North,358,0.0,0.0,49,0.00,,,0.02,Wunderground v.1.15,2013-04-18 01:27:00,
2013-04-17 21:32:00,47.0,27.3,30.31,North,358,0.0,0.0,46,0.00,,,0.02,Wunderground v.1.15,2013-04-18 01:32:00,
2013-04-17 21:37:00,47.0,28.3,30.31,North,358,0.0,0.0,48,0.00,,,0.02,Wunderground v.1.15,2013-04-18 01:37:00,
2013-04-17 21:42:00,46.8,27.1,30.30,North,358,0.0,0.0,46,0.00,,,0.02,Wunderground v.1.15,2013-04-18 01:42:00,
2013-04-17 21:47:00,45.4,29.3,30.30,North,358,0.0,0.0,53,0.00,,,0.02,Wunderground v.1.15,2013-04-18 01:47:00,
2013-04-17 21:53:00,44.2,29.0,30.30,North,358,0.0,0.0,55,0.00,,,0.02,Wunderground v.1.15,2013-04-18 01:53:00,
2013-04-17 21:58:00,44.6,29.4,30.31,North,358,0.0,0.0,55,0.00,,,0.02,Wunderground v.1.15,2013-04-18 01:58:00,
2013-04-17 22:03:00,44.5,27.5,30.31,North,358,0.0,0.0,51,0.00,,,0.02,Wunderground v.1.15,2013-04-18 02:03:00,
2013-04-17 22:08:00,43.1,29.7,30.31,North,358,0.0,0.0,59,0.00,,,0.02,Wunderground v.1.15,2013-04-18 02:08:00,
2013-04-17 22:14:00,42.5,29.6,30.31,North,358,0.0,0.0,60,0.00,,,0.02,Wunderground v.1.15,2013-04-18 02:14:00,
2013-04-17 22:19:00,42.2,29.3,30.31,North,358,0.0,0.0,60,0.00,,,0.02,Wunderground v.1.15,2013-04-18 02:19:00,
2013-04-17 22:24:00,42.1,28.8,30.31,North,358,0.0,0.0,59,0.00,,,0.02,Wunderground v.1.15,2013-04-18 02:24:00,
2013-04-17 22:29:00,41.8,30.1,30.31,North,358,0.0,0.0,63,0.00,,,0.02,Wunderground v.1.15,2013-04-18 02:29:00,
2013-04-17 22:34:00,40.8,29.6,30.31,North,358,0.0,0.0,64,0.00,,,0.02,Wunderground v.1.15,2013-04-18 02:34:00,
2013-04-17 22:39:00,40.5,29.3,30.31,North,358,0.0,0.0,64,0.00,,,0.02,Wunderground v.1.15,2013-04-18 02:39:00,
2013-04-17 22:45:00,40.3,29.1,30.32,North,358,0.0,0.0,64,0.00,,,0.02,Wunderground v.1.15,2013-04-18 02:45:00,
2013-04-17 22:50:00,40.5,29.3,30.32,North,358,0.0,0.0,64,0.00,,,0.02,Wunderground v.1.15,2013-04-18 02:50:00,
2013-04-17 22:55:00,40.5,29.3,30.32,North,358,0.0,0.0,64,0.00,,,0.02,Wunderground v.1.15,2013-04-18 02:55:00,
2013-04-17 23:00:00,39.9,29.8,30.31,North,358,0.0,0.0,67,0.00,,,0.02,Wunderground v.1.15,2013-04-18 03:00:00,
2013-04-17 23:05:00,39.2,29.5,30.31,North,358,0.0,0.0,68,0.00,,,0.02,Wunderground v.1.15,2013-04-18 03:05:00,
2013-04-17 23:10:00,39.1,30.1,30.31,North,358,0.0,0.0,70,0.00,,,0.02,Wunderground v.1.15,2013-04-18 03:10:00,
2013-04-17 23:15:00,39.1,29.1,30.31,North,358,0.0,0.0,67,0.00,,,0.02,Wunderground v.1.15,2013-04-18 03:15:00,
2013-04-17 23:20:00,38.9,29.2,30.31,North,358,0.0,0.0,68,0.00,,,0.02,Wunderground v.1.15,2013-04-18 03:20:00,
2013-04-17 23:25:00,38.6,29.7,30.31,North,358,0.0,0.0,70,0.00,,,0.02,Wunderground v.1.15,2013-04-18 03:25:00,
2013-04-17 23:30:00,37.8,29.2,30.32,North,358,0.0,0.0,71,0.00,,,0.02,Wunderground v.1.15,2013-04-18 03:30:00,
2013-04-17 23:36:00,37.8,29.6,30.32,North,358,0.0,0.0,72,0.00,,,0.02,Wunderground v.1.15,2013-04-18 03:36:00,
2013-04-17 23:41:00,37.6,29.4,30.32,North,358,0.0,0.0,72,0.00,,,0.02,Wunderground v.1.15,2013-04-18 03:41:00,
2013-04-17 23:46:00,37.0,29.1,30.32,North,358,0.0,0.0,73,0.00,,,0.02,Wunderground v.1.15,2013-04-18 03:46:00,
2013-04-17 23:51:00,36.8,29.3,30.32,North,358,0.0,0.0,74,0.00,,,0.02,Wunderground v.1.15,2013-04-18 03:51:00,
2013-04-17 23:57:00,36.8,29.0,30.33,North,358,0.0,0.0,73,0.00,,,0.00,Wunderground v.1.15,2013-04-18 03:57:00,